STARLINK-11307 [DTC]

Last updated on Tue Oct 08 2024 00:02:04 GMT+0000 (Coordinated Universal Time)

1 61210U 24171L 24281.58334491 -.00899568 00000+0 -55624-2 0 9999 2 61210 53.1611 211.3030 0000679 120.6166 152.8279 15.78783497 3920
UTC large
Height (km)
Speed (km/s)
/
Latitude / Longitude
Inclination (degrees)
Orbital Period (minutes)
Azimuth
Elevation
Range (km)
Doppler Factor

Next 0 passes for location: London (51.5072 / 0.1276)

Sorry there are no passes over London.